GW0115 Weather Reports


time (UTC)temp
F
wind
direction
speed
knots
gust
knots
rain 1hr
in
rain 24hr
in
rain mn
in
humidity
%
barometer
mb
20260831181557 77 0 0.0 0.0 0.00 0.00 0.00 67 1019.0
20260831180111 76 0 0.0 0.0 0.00 0.00 0.00 68 1019.3
20260831174558 75 0 0.0 0.0 0.00 0.00 0.00 70 1019.5
20260831173058 74 0 0.0 0.0 0.00 0.00 0.00 69 1019.5
20260831171555 75 0 0.0 0.0 0.00 0.00 0.00 68 1019.8
20260831170059 76 0 0.0 0.0 0.00 0.00 0.00 70 1019.9
20260831164600 76 0 0.0 0.0 0.00 0.00 0.00 72 1019.8
20260831163102 75 0 0.0 0.0 0.00 0.00 0.00 75 1019.9
20260831161554 74 0 0.0 0.0 0.00 0.00 0.00 70 1020.2
20260831160059 73 0 0.0 0.0 0.00 0.00 0.00 70 1020.4
20260831154616 72 0 0.0 0.0 0.00 0.00 0.00 73 1020.4
20260831153058 71 0 0.0 2.6 0.00 0.00 0.00 74 1020.5
20260831151612 70 0 0.0 0.0 0.00 0.00 0.00 76 1020.6
20260831150058 70 0 0.0 0.0 0.00 0.00 0.00 76 1020.5
20260831144605 70 0 0.0 0.0 0.00 0.00 0.00 76 1020.4
20260831143100 70 0 0.0 0.0 0.00 0.00 0.00 76 1020.6
20260831141556 69 0 0.0 0.0 0.00 0.00 0.00 77 1020.7
20260831140058 68 0 0.0 0.0 0.00 0.00 0.00 79 1020.7
20260831134600 68 0 0.0 0.9 0.00 0.00 0.00 79 1020.8
20260831133103 68 0 0.0 0.9 0.00 0.00 0.00 83 1020.8
20260831131559 65 0 0.0 0.0 0.00 0.00 0.00 88 1020.7
20260831130101 64 0 0.0 0.0 0.00 0.00 0.00 89 1020.9
20260831124605 64 0 0.0 0.0 0.00 0.00 0.00 93 1020.8
20260831123056 63 0 0.0 0.0 0.00 0.00 0.00 93 1020.9
20260831121602 62 0 0.0 0.0 0.00 0.00 0.00 94 1020.8
20260831120114 61 0 0.0 0.0 0.00 0.00 0.00 94 1020.7
20260831114558 60 0 0.0 0.0 0.00 0.00 0.00 94 1020.8
20260831113104 59 0 0.0 0.0 0.00 0.00 0.00 95 1020.7
20260831111555 58 0 0.0 0.0 0.00 0.00 0.00 95 1020.5
20260831104612 57 0 0.0 0.0 0.00 0.00 0.00 94 1020.0
20260831103056 57 0 0.0 0.0 0.00 0.00 0.00 94 1019.8
20260831101553 58 0 0.0 0.0 0.00 0.00 0.00 94 1019.8
20260831100122 58 0 0.0 0.0 0.00 0.00 0.00 94 1019.7
20260831094557 58 0 0.0 0.0 0.00 0.00 0.00 94 1019.6
20260831093103 58 0 0.0 0.0 0.00 0.00 0.00 94 1019.5
20260831091600 58 0 0.0 0.0 0.00 0.00 0.00 94 1019.6
20260831090057 58 0 0.0 0.0 0.00 0.00 0.00 94 1019.6
20260831084607 59 0 0.0 0.0 0.00 0.00 0.00 93 1019.5
20260831083104 59 0 0.0 0.0 0.00 0.00 0.00 93 1019.4
20260831081558 60 0 0.0 0.0 0.00 0.00 0.00 93 1019.4
20260831080105 60 0 0.0 0.0 0.00 0.00 0.00 93 1019.5
20260831074558 60 0 0.0 0.0 0.00 0.00 0.00 93 1019.2
20260831073105 61 0 0.0 0.0 0.00 0.00 0.00 92 1019.2
20260831071558 61 0 0.0 0.0 0.00 0.00 0.00 92 1019.2
20260831070113 61 0 0.0 0.0 0.00 0.00 0.00 92 1019.2
20260831064605 62 0 0.0 0.0 0.00 0.00 0.00 91 1018.9
20260831063100 62 0 0.0 0.0 0.00 0.00 0.00 91 1018.8
20260831061557 62 0 0.0 0.0 0.00 0.00 0.00 90 1018.8
20260831060059 63 0 0.0 0.0 0.00 0.00 0.00 90 1018.9
20260831054604 63 0 0.0 0.0 0.00 0.00 0.00 89 1018.9
20260831053058 64 0 0.0 0.0 0.00 0.00 0.00 88 1019.1
20260831051555 64 0 0.0 0.0 0.00 0.00 0.00 88 1019.1
20260831050103 64 0 0.0 0.0 0.00 0.00 0.00 87 1018.9
20260831044602 65 0 0.0 0.0 0.00 0.00 0.00 85 1018.8
20260831043056 66 0 0.0 3.5 0.00 0.00 0.00 83 1018.9
20260831041605 67 0 0.0 5.2 0.00 0.00 0.00 83 1018.7
20260831034557 67 0 0.0 0.0 0.00 0.00 0.00 83 1018.6
20260831033103 66 0 0.0 0.0 0.00 0.00 0.00 84 1018.6
20260831031558 67 0 0.0 0.0 0.00 0.00 0.00 84 1018.7
20260831030106 67 0 0.0 0.0 0.00 0.00 0.00 83 1018.7
20260831024553 67 0 0.0 0.0 0.00 0.00 0.00 82 1018.7
20260831023058 67 0 0.0 0.0 0.00 0.00 0.00 82 1018.5
20260831021600 68 0 0.0 0.0 0.00 0.00 0.00 80 1018.3
20260831020106 68 0 0.0 0.0 0.00 0.00 0.00 80 1018.4
20260831014617 68 0 0.0 0.0 0.00 0.00 0.00 79 1018.2
20260831013058 69 0 0.0 0.0 0.00 0.00 0.00 79 1018.2
20260831011612 69 0 0.0 2.6 0.00 0.00 0.00 78 1017.9
20260831004559 69 0 0.0 0.0 0.00 0.00 0.00 78 1017.1
20260831003056 68 0 0.0 0.0 0.00 0.00 0.00 79 1017.0
20260831001607 68 0 0.0 1.7 0.00 0.00 0.00 79 1017.1
20260831000103 69 0 0.0 1.7 0.00 0.00 0.00 80 1016.7
20260830234558 69 0 0.0 0.0 0.00 0.00 0.00 79 1016.7
20260830233108 70 0 0.0 0.0 0.00 0.00 0.00 78 1016.6
20260830231609 70 0 0.0 1.7 0.00 0.00 0.00 77 1016.6
20260830230059 70 0 0.0 0.9 0.00 0.00 0.00 78 1016.6
20260830224628 70 0 0.0 0.0 0.00 0.00 0.00 80 1016.7
20260830223105 70 0 0.0 2.6 0.00 0.00 0.00 78 1016.4
20260830221607 71 0 0.0 0.0 0.00 0.00 0.00 80 1016.3
20260830220104 71 0 0.0 6.1 0.00 0.00 0.00 79 1016.3
20260830214606 70 0 0.0 0.0 0.00 0.00 0.00 83 1016.0
20260830213102 70 0 0.0 0.0 0.00 0.00 0.00 85 1016.0
20260830211559 70 0 0.0 0.0 0.00 0.00 0.00 83 1016.1
20260830204601 72 0 0.0 0.0 0.00 0.00 0.00 78 1016.1
20260830203059 73 0 0.0 0.0 0.00 0.00 0.00 75 1016.1
20260830201558 73 0 0.0 0.0 0.00 0.00 0.00 74 1016.2
20260830200105 73 0 0.0 0.0 0.00 0.00 0.00 76 1016.1
20260830194551 73 0 0.0 0.0 0.00 0.00 0.00 75 1016.4
20260830193057 73 0 0.0 0.0 0.00 0.00 0.00 74 1016.6
20260830191556 73 0 0.0 0.0 0.00 0.00 0.00 76 1016.8
20260830190053 73 0 0.0 0.0 0.00 0.00 0.00 75 1017.0
20260830184557 73 0 0.0 0.0 0.00 0.00 0.00 74 1017.1
20260830183057 73 0 0.0 0.0 0.00 0.00 0.00 77 1017.4